Lubbock, TX

11:29 AM CDT on August 17, 2017 (GMT -0500)
Lubbock International

Weather History for KLBB - February, 2014

Change the Weather History Date:

Tuesday, February 18, 2014

  Actual Average Record
Temperature  
Mean Temperature 62 °F 45 °F  
Max Temperature 81 °F 60 °F 87 °F (2016)
Min Temperature 42 °F 31 °F -2 °F (1978)
Degree Days  
Heating Degree Days 3 20  
Month to date heating degree days 460 390  
Since 1 July heating degree days 2688 2555  
Cooling Degree Days 0 0  
Month to date cooling degree days 0 0  
Year to date cooling degree days 0 0  
Growing Degree Days 13 (Base 50)    
Moisture  
Dew Point 15 °F    
Average Humidity 20    
Maximum Humidity 32    
Minimum Humidity 7    
Precipitation  
Precipitation 0.00 in 0.02 in 0.94 in (1911)
Month to date precipitation 0.16 0.48  
Year to date precipitation 0.16 1.13  
Snow  
Snow 0.00 in 0.00 in 1.50 in (1938)
Month to date snowfall 1.8 1.2  
Since 1 July snowfall 4.2 7.0  
Snow Depth 0.00 in    
Sea Level Pressure  
Sea Level Pressure 29.88 in    
Wind  
Wind Speed 13 mph (West)    
Max Wind Speed 32 mph    
Max Gust Speed 40 mph    
Visibility 10 miles    
Events      
T = Trace of Precipitation, MM = Missing Value Source: NWS Daily Summary

Daily Weather History Graph

Daily Weather History Graph

Search for Another Location

Airport or City:

Trip Planner

Search our weather history database for the weather conditions in past years. The results will help you decide how hot, cold, wet, or windy it might be!

Date:

Astronomy

Feb. 18, 2014 Rise Set
Actual Time 7:28 AM CST 6:34 PM CST
Civil Twilight 7:02 AM CST 6:59 PM CST
Nautical Twilight 6:33 AM CST 7:28 PM CST
Astronomical Twilight 6:05 AM CST 7:57 PM CST
Moon 10:16 PM CST (2/18) 9:13 AM CST (2/18)
Length of Visible Light 11h 56m
Length of Day
11h 06m
Waning Gibbous, 87% of the Moon is Illuminated
Feb 18
Waning Gibbous
Feb 22
Last Quarter
Mar 1
New
Mar 8
First Quarter
Mar 16
Full

Hourly Weather History & Observations

Time (CST) Temp. Windchill Dew Point Humidity Pressure Visibility Wind Dir Wind Speed Gust Speed Precip Events Conditions
12:53 AM 46.0 °F 40.6 °F 12.0 °F 25% 30.04 in 10.0 mi South 11.5 mph - N/A   Clear
1:53 AM 43.0 °F 38.8 °F 14.0 °F 31% 30.03 in 10.0 mi South 6.9 mph - N/A   Scattered Clouds
2:53 AM 42.1 °F 37.7 °F 14.0 °F 32% 30.00 in 10.0 mi South 6.9 mph - N/A   Partly Cloudy
3:53 AM 45.0 °F 38.2 °F 15.1 °F 30% 29.96 in 10.0 mi South 15.0 mph - N/A   Clear
4:53 AM 46.0 °F 40.2 °F 15.1 °F 29% 29.94 in 10.0 mi SSW 12.7 mph - N/A   Clear
5:53 AM 46.9 °F - 15.1 °F 28% 29.93 in 10.0 mi SSW 15.0 mph - N/A   Clear
6:53 AM 48.0 °F - 16.0 °F 28% 29.94 in 10.0 mi SW 15.0 mph - N/A   Partly Cloudy
7:53 AM 46.0 °F 41.0 °F 18.0 °F 33% 29.94 in 10.0 mi SW 10.4 mph - N/A   Partly Cloudy
8:53 AM 51.1 °F - 19.9 °F 29% 29.95 in 10.0 mi WSW 11.5 mph - N/A   Mostly Cloudy
9:53 AM 55.0 °F - 27.0 °F 34% 29.94 in 10.0 mi WSW 16.1 mph - N/A   Mostly Cloudy
10:53 AM 62.1 °F - 30.9 °F 31% 29.93 in 10.0 mi West 18.4 mph - N/A   Partly Cloudy
11:53 AM 70.0 °F - 24.1 °F 18% 29.89 in 10.0 mi West 13.8 mph 21.9 mph N/A   Partly Cloudy
12:53 PM 77.0 °F - 19.9 °F 12% 29.82 in 10.0 mi West 20.7 mph 27.6 mph N/A   Partly Cloudy
1:22 PM 79.0 °F - 18.0 °F 10% 29.90 in 9.0 mi West 27.6 mph 36.8 mph N/A   Scattered Clouds
1:25 PM 80.1 °F - 18.0 °F 10% 29.90 in 10.0 mi West 26.5 mph 36.8 mph N/A   Scattered Clouds
1:53 PM 80.1 °F - 16.0 °F 9% 29.79 in 10.0 mi West 27.6 mph 40.3 mph N/A   Partly Cloudy
2:53 PM 81.0 °F - 12.9 °F 8% 29.77 in 9.0 mi West 25.3 mph 38.0 mph N/A   Partly Cloudy
3:53 PM 80.1 °F - 12.9 °F 8% 29.76 in 10.0 mi WNW 24.2 mph 31.1 mph N/A   Partly Cloudy
4:53 PM 80.1 °F - 10.9 °F 7% 29.76 in 10.0 mi West 17.3 mph 27.6 mph N/A   Partly Cloudy
5:53 PM 75.9 °F - 10.0 °F 8% 29.77 in 10.0 mi WNW 10.4 mph - N/A   Scattered Clouds
6:53 PM 64.0 °F - 10.9 °F 13% 29.82 in 10.0 mi WNW 6.9 mph - N/A   Partly Cloudy
7:53 PM 61.0 °F - 10.0 °F 13% 29.85 in 10.0 mi NW 5.8 mph - N/A   Partly Cloudy
8:53 PM 55.9 °F - 9.0 °F 15% 29.86 in 10.0 mi NNW 5.8 mph - N/A   Partly Cloudy
9:53 PM 50.0 °F - 10.0 °F 20% 29.88 in 10.0 mi WNW 4.6 mph - N/A   Partly Cloudy
10:53 PM 46.9 °F - 10.0 °F 22% 29.87 in 10.0 mi NNW 4.6 mph - N/A   Partly Cloudy
11:53 PM 46.9 °F - 10.0 °F 22% 29.86 in 10.0 mi NE 3.5 mph - N/A   Mostly Cloudy